カタログに戻る

STARLINK-35106

運用中通信VLEO
NORAD 65739·PAYLOAD·🇺🇸 United States

打ち上げ Sep 25, 2025 から Cape Canaveral Space Force Station

Loading…

次のパス (今後24時間)

TLE

最新Source: CelesTrak SupGP

元期: Sep 14, 2026, 22:46 UTC

1 65739C 25216F   26257.94909722 -.00061988  00000+0 -18312-2 0  2577
2 65739  53.1571 171.9876 0001307  87.0577 345.3718 15.34426724    18

AllMySatでSTARLINK-35106をリアルタイム追跡

Download on the App Store